Date,TemperatureHighF,TemperatureAvgF,TemperatureLowF,DewpointHighF,DewpointAvgF,DewpointLowF,HumidityHigh,HumidityAvg,HumidityLow,PressureMaxIn,PressureMinIn,WindSpeedMaxMPH,WindSpeedAvgMPH,GustSpeedMaxMPH,PrecipitationSumIn
2013-1-1,23,17,10,20,14,6,90,88,84,30.33,30.04,8,1,15,0.00
2013-1-2,31,22,6,27,19,3,94,88,83,30.33,30.00,12,3,18,0.00
2013-1-3,21,14,4,17,11,1,98,86,83,30.40,30.20,9,2,14,0.00
2013-1-4,30,19,9,20,13,4,84,77,64,30.23,30.11,8,1,12,0.00
2013-1-5,21,14,6,17,10,2,100,85,77,30.28,30.02,16,3,16,0.00
2013-1-6,29,15,5,24,11,2,92,86,81,30.32,29.92,9,1,14,0.00
2013-1-7,33,27,23,25,22,19,85,80,73,30.03,29.92,7,1,13,0.00
2013-1-8,33,28,16,30,24,12,91,84,77,30.03,29.74,6,1,12,0.00
2013-1-9,33,28,23,28,23,18,92,82,74,30.33,30.03,8,2,13,0.00
2013-1-10,38,35,29,32,29,26,94,80,65,30.14,29.56,10,2,15,0.00
2013-1-11,38,30,11,36,28,8,95,93,89,29.58,29.37,13,2,16,0.01
2013-1-12,11,3,0,9,0,-4,90,86,84,30.29,29.59,14,4,21,0.13
2013-1-13,9,2,-3,5,-1,-7,87,84,82,30.40,30.26,6,0,9,0.02
2013-1-14,12,4,-6,7,0,-9,92,83,79,30.52,30.36,4,0,8,0.00
2013-1-15,27,13,5,24,8,1,92,81,73,30.36,29.83,11,1,19,0.02
2013-1-16,31,12,4,29,7,-1,94,79,71,30.34,29.79,9,2,15,0.05
2013-1-17,26,18,4,22,14,-1,90,81,75,30.51,30.18,7,0,9,0.00
2013-1-18,37,32,25,32,28,22,99,85,78,30.17,29.78,6,1,8,0.00
2013-1-19,35,20,-2,31,16,-6,90,84,75,30.43,29.77,19,4,25,0.00
2013-1-20,8,1,-10,3,-4,-16,93,80,73,30.55,30.41,18,3,19,0.00
2013-1-21,0,-6,-13,-5,-11,-18,80,77,74,30.56,30.48,11,2,14,0.00
2013-1-22,13,5,-3,9,-2,-10,84,74,61,30.50,30.30,5,0,8,0.00
2013-1-23,13,2,-10,9,-2,-16,89,80,72,30.74,30.27,12,3,14,0.00
2013-1-24,10,1,-10,5,-5,-17,79,74,68,30.74,30.19,9,1,13,0.00
2013-1-25,20,9,0,17,3,-6,89,77,68,30.40,30.14,12,2,19,0.00
2013-1-26,24,12,-1,19,6,-6,88,77,66,30.39,30.05,7,0,11,0.00
2013-1-27,39,31,18,34,27,14,93,86,77,30.05,29.79,2,0,7,0.00
2013-1-28,34,29,24,32,27,21,100,92,86,29.88,29.72,7,1,10,0.14
2013-1-29,25,22,18,25,20,16,100,91,87,29.97,29.68,11,2,15,0.11
2013-1-30,19,5,-12,16,1,-16,90,84,80,30.05,29.94,13,4,16,0.00
2013-1-31,-10,-13,-16,-15,-18,-21,81,78,76,30.54,30.05,18,3,19,0.00
2013-2-1,15,1,-16,11,-3,-21,86,80,75,30.51,30.16,6,1,11,0.00
2013-2-2,29,13,1,27,10,-2,93,85,78,30.28,30.03,18,3,29,0.09
2013-2-3,21,12,5,15,9,2,88,84,75,30.24,29.96,13,4,19,0.00
2013-2-4,25,12,2,22,8,-3,97,84,72,30.17,29.80,10,1,13,0.00
2013-2-5,30,24,12,27,20,8,92,85,76,30.09,29.78,14,2,17,0.00
2013-2-6,39,27,13,33,24,9,92,87,78,30.09,29.86,7,1,13,0.00
2013-2-7,23,20,17,22,19,15,100,93,92,30.36,30.08,10,2,13,0.00
2013-2-8,26,21,17,23,19,15,93,91,88,30.37,30.04,7,1,16,0.00
2013-2-9,36,29,24,31,27,22,96,91,84,30.04,29.77,10,2,12,0.35
2013-2-10,30,26,22,29,25,21,96,96,94,29.77,29.45,23,11,27,1.24
2013-2-11,22,19,14,21,17,11,100,92,88,30.13,29.74,16,5,20,0.26
2013-2-12,26,20,13,24,17,11,98,90,88,30.09,29.92,6,1,12,0.00
2013-2-13,35,29,21,32,26,18,94,91,87,29.92,29.64,13,2,21,0.00
2013-2-14,28,18,0,26,15,-3,95,89,83,30.38,29.83,17,3,18,0.08
2013-2-15,18,10,1,13,6,-2,89,84,78,30.49,30.37,8,0,11,0.00
2013-2-16,25,14,4,19,10,1,88,84,74,30.38,30.07,2,0,5,0.00
2013-2-17,35,26,19,30,23,17,94,88,81,30.07,29.56,9,1,11,0.00
2013-2-18,32,15,2,31,12,-1,95,88,83,30.19,29.61,19,6,27,0.00
2013-2-19,2,-7,-14,-1,-12,-19,89,80,76,30.62,30.19,13,2,16,0.00
2013-2-20,14,-2,-16,6,-6,-20,85,79,69,30.63,30.46,8,2,13,0.00
2013-2-21,18,10,2,12,5,-2,87,81,74,30.48,30.21,15,5,19,0.00
2013-2-22,22,16,10,18,12,6,90,85,73,30.21,30.00,14,3,14,0.02
2013-2-23,24,12,-1,17,7,-5,88,82,73,30.03,29.94,3,0,4,0.00
2013-2-24,29,18,5,21,13,2,89,81,71,30.17,30.03,3,0,4,0.00
2013-2-25,31,20,6,25,16,2,91,86,76,30.19,30.09,4,0,7,0.00
2013-2-26,24,15,8,21,13,5,94,91,86,30.14,30.06,7,1,10,0.00
2013-2-27,26,21,13,23,18,10,92,88,81,30.26,30.14,11,2,17,0.00
2013-2-28,24,21,17,20,18,15,100,88,81,30.36,30.25,8,2,12,0.00
2013-3-1,24,15,5,18,11,0,88,83,76,30.49,30.35,3,0,7,0.00
2013-3-2,30,16,-1,22,12,-5,92,81,71,30.46,30.13,5,0,13,0.00
2013-3-3,37,27,18,30,23,14,93,85,75,30.13,29.79,6,1,11,0.02
2013-3-4,36,28,22,32,25,18,94,88,78,29.94,29.77,5,0,9,0.03
2013-3-5,24,21,17,21,18,14,92,88,82,30.48,29.93,13,3,17,0.02
2013-3-6,24,16,12,17,13,9,92,86,72,30.52,30.33,7,1,11,0.00
2013-3-7,35,24,18,29,21,15,93,87,76,30.35,30.17,6,1,11,0.00
2013-3-8,32,26,16,30,23,13,100,92,86,30.28,30.02,15,4,19,0.09
2013-3-9,32,30,25,31,28,24,97,96,95,30.02,29.79,10,2,13,0.52
2013-3-10,25,18,7,24,16,5,95,91,88,30.22,30.00,13,4,18,0.00
2013-3-11,27,15,4,22,11,0,97,85,75,30.15,29.95,5,0,8,0.00
2013-3-12,26,21,14,24,18,10,94,89,84,30.40,30.00,16,4,20,0.04
2013-3-13,29,16,1,26,12,-2,88,83,74,30.48,30.17,4,0,9,0.00
2013-3-14,41,32,24,34,28,21,92,85,74,30.18,30.06,6,0,7,0.00
2013-3-15,32,24,14,30,23,12,100,94,89,30.09,29.89,17,7,19,0.00
2013-3-16,16,8,1,12,5,-1,92,86,79,30.39,30.08,9,2,14,0.00
2013-3-17,30,17,4,29,13,0,95,84,74,30.38,29.66,9,3,19,0.52
2013-3-18,33,13,4,32,11,1,96,90,86,30.12,29.57,16,7,26,0.04
2013-3-19,16,7,-2,12,3,-7,92,83,78,30.50,30.12,12,2,15,0.00
2013-3-20,16,6,-3,10,2,-6,88,83,74,30.52,30.30,7,2,11,0.00
2013-3-21,19,6,-7,13,2,-11,95,83,77,30.30,30.15,10,2,12,0.00
2013-3-22,32,15,1,23,10,-2,89,82,67,30.23,30.14,5,1,9,0.00
2013-3-23,28,21,16,21,16,13,89,83,73,30.27,30.21,7,0,9,0.00
2013-3-24,28,22,16,24,18,14,91,86,80,30.28,30.16,14,3,17,0.00
2013-3-25,27,20,10,20,16,7,91,85,73,30.44,30.27,10,2,13,0.01
2013-3-26,29,17,8,22,13,4,91,84,73,30.45,30.34,6,1,8,0.00
2013-3-27,41,27,14,32,23,11,91,84,67,30.37,30.30,9,2,11,0.00
2013-3-28,43,34,28,36,30,25,94,85,72,30.31,30.22,6,1,7,0.00
2013-3-29,53,40,33,43,35,30,93,82,68,30.25,29.92,7,0,9,0.00
2013-3-30,42,35,31,39,33,30,96,93,84,30.02,29.92,9,2,11,0.05
2013-3-31,34,28,18,32,23,13,96,82,65,30.29,29.96,11,4,18,0.00
2013-4-1,30,22,13,19,15,10,89,76,61,30.43,30.28,8,1,10,0.00
2013-4-2,34,25,20,26,20,16,88,79,67,30.41,30.35,11,2,13,0.00
2013-4-3,58,37,22,45,30,18,86,77,60,30.40,29.98,6,1,11,0.00
2013-4-4,40,32,25,34,28,22,92,82,75,30.29,30.07,13,4,15,0.00
2013-4-5,45,32,22,33,26,18,92,81,59,30.29,29.70,14,5,18,0.00
2013-4-6,43,36,32,38,33,31,100,89,80,29.89,29.58,12,3,14,0.00
2013-4-7,43,35,30,39,33,28,96,91,81,29.94,29.74,9,2,13,0.02
2013-4-8,37,32,22,36,31,20,98,96,92,30.17,29.72,24,10,30,0.02
2013-4-9,24,20,15,20,16,11,92,85,80,30.35,30.11,29,15,35,0.00
2013-4-10,33,27,23,26,22,18,94,80,64,30.37,30.02,28,11,29,0.13
2013-4-11,31,28,26,29,26,24,96,95,93,30.02,29.77,23,12,27,0.45
2013-4-12,33,28,26,28,26,25,95,90,77,29.98,29.84,9,2,13,0.00
2013-4-13,38,29,24,30,26,22,95,88,72,29.98,29.87,12,3,16,0.02
2013-4-14,31,29,27,30,28,25,97,96,94,29.87,29.40,26,13,31,0.39
2013-4-15,34,31,28,32,29,27,97,93,85,30.11,29.41,16,4,21,0.00
2013-4-16,34,29,21,28,26,19,93,86,77,30.41,30.08,11,2,13,0.00
2013-4-17,31,30,28,29,28,26,95,92,90,30.42,30.13,14,6,22,0.05
2013-4-18,31,28,24,29,26,21,95,92,86,30.12,29.90,13,6,19,0.14
2013-4-19,34,27,21,26,21,17,87,78,64,30.17,29.87,14,3,16,0.00
2013-4-20,38,28,15,29,21,12,93,77,51,30.30,30.17,6,0,10,0.01
2013-4-21,40,35,30,37,32,27,93,88,82,30.23,30.01,11,2,14,0.06
2013-4-22,30,28,26,29,26,23,95,92,88,30.41,30.22,15,5,18,0.19
2013-4-23,39,27,13,31,22,10,91,83,67,30.39,30.15,7,1,11,0.00
2013-4-24,42,33,26,36,28,21,93,82,73,30.16,30.00,10,2,23,0.04
2013-4-25,51,36,22,42,30,19,92,79,67,30.21,29.93,12,1,13,0.00
2013-4-26,67,50,35,45,37,32,91,65,32,30.14,29.91,7,0,9,0.00
2013-4-27,75,57,42,49,41,33,74,56,35,30.14,29.75,4,0,13,0.00
2013-4-28,67,54,41,51,44,36,86,69,44,29.85,29.65,9,1,14,0.00
2013-4-29,71,54,34,48,38,30,88,59,27,29.87,29.34,7,0,12,0.00
2013-4-30,62,53,40,48,39,31,90,62,38,30.05,29.23,19,4,24,0.00
2013-5-1,43,36,32,31,27,23,84,69,53,30.62,30.05,10,2,15,0.00
2013-5-2,44,36,29,30,27,24,87,70,47,30.73,30.54,15,3,23,0.00
2013-5-3,46,36,24,31,26,22,90,70,48,30.54,30.26,17,5,19,0.00
2013-5-4,40,38,36,38,32,27,95,80,60,30.27,30.22,15,7,23,0.02
2013-5-5,46,41,36,43,39,35,100,91,84,30.27,30.17,7,1,9,0.03
2013-5-6,66,53,44,51,45,40,89,75,51,30.18,30.02,4,0,5,0.00
2013-5-7,76,60,44,49,45,40,90,61,34,30.03,29.88,7,0,15,0.00
2013-5-8,63,57,50,55,51,46,93,81,68,30.01,29.89,15,3,16,0.00
2013-5-9,64,55,44,52,46,41,93,75,55,30.12,30.00,19,6,24,0.00
2013-5-10,72,54,38,48,39,31,87,61,34,30.14,29.90,12,2,18,0.00
2013-5-11,52,44,37,37,26,18,79,52,27,30.31,30.10,13,3,22,0.00
2013-5-12,65,50,34,32,25,18,74,42,19,30.29,30.04,6,0,9,0.00
2013-5-13,90,67,51,55,42,30,59,42,22,30.04,29.64,12,2,22,0.00
2013-5-14,89,72,57,53,45,30,65,42,15,29.75,29.46,20,4,23,0.00
2013-5-15,77,63,50,55,47,40,83,59,29,29.88,29.74,7,0,12,0.00
2013-5-16,83,67,53,55,47,40,77,51,26,29.85,29.72,6,0,12,0.00
2013-5-17,78,66,54,66,58,47,93,75,60,29.80,29.70,15,3,19,0.00
2013-5-18,82,70,60,65,61,58,96,77,50,29.79,29.59,7,0,11,0.29
2013-5-19,73,66,59,64,61,57,96,85,68,29.62,29.44,10,1,22,0.87
2013-5-20,65,59,54,62,57,54,97,95,88,29.45,29.35,8,0,16,0.32
2013-5-21,56,52,47,55,51,46,98,96,94,29.78,29.42,19,8,24,1.10
2013-5-22,54,48,45,50,46,44,96,93,82,30.10,29.76,23,9,29,0.16
2013-5-23,62,53,42,50,45,40,97,75,53,30.29,30.10,13,2,16,0.00
2013-5-24,62,53,44,52,45,38,87,76,60,30.27,30.04,13,1,14,0.14
2013-5-25,66,56,50,58,52,49,96,87,76,30.06,30.01,13,2,16,0.00
2013-5-26,53,50,48,51,49,48,98,96,95,30.12,29.86,23,5,24,0.12
2013-5-27,64,55,50,60,54,50,98,95,85,29.98,29.73,12,2,14,0.00
2013-5-28,77,62,54,62,56,53,98,83,53,29.80,29.62,7,0,11,0.00
2013-5-29,72,63,56,69,61,54,97,92,76,29.72,29.44,17,2,25,0.50
2013-5-30,75,66,61,65,61,58,96,83,61,29.44,29.30,9,0,11,0.04
2013-5-31,62,57,54,59,55,50,100,92,78,29.46,29.22,11,1,20,0.10
2013-6-1,59,51,48,58,49,44,97,92,80,30.07,29.46,14,4,23,0.00
2013-6-2,65,54,45,48,45,41,94,72,48,30.14,29.99,5,0,10,0.00
2013-6-3,68,56,45,52,46,40,85,70,48,30.00,29.80,14,3,21,0.00
2013-6-4,73,62,54,61,54,47,92,74,53,29.94,29.82,6,0,15,0.00
2013-6-5,65,57,51,55,51,48,93,82,60,30.00,29.91,13,1,22,0.00
2013-6-6,59,54,51,51,50,48,96,86,73,30.04,29.98,9,1,11,0.00
2013-6-7,73,59,45,54,50,44,97,74,42,30.04,29.81,2,0,5,0.00
2013-6-8,60,57,56,58,53,50,97,87,71,29.80,29.70,9,1,14,0.00
2013-6-9,63,58,54,58,56,52,97,93,83,29.83,29.72,13,4,17,0.50
2013-6-10,80,65,49,64,58,48,100,81,52,29.87,29.72,2,0,8,0.00
2013-6-11,73,66,62,61,57,50,92,73,51,29.88,29.73,13,4,19,0.02
2013-6-12,69,63,57,61,55,51,90,76,61,30.03,29.70,19,2,28,0.27
2013-6-13,78,65,53,58,54,50,92,70,45,30.12,29.95,8,0,13,0.00
2013-6-14,84,72,60,69,62,56,86,72,58,29.98,29.67,10,0,21,0.00
2013-6-15,80,70,61,65,54,46,89,61,31,29.89,29.74,9,0,10,0.00
2013-6-16,82,67,55,67,55,50,86,67,40,29.90,29.81,12,1,15,0.08
2013-6-17,76,67,57,59,56,54,89,71,50,29.97,29.87,8,1,12,0.00
2013-6-18,80,68,56,61,57,53,90,71,47,30.03,29.89,9,0,16,0.00
2013-6-19,87,73,59,67,60,55,88,67,36,29.92,29.74,9,0,12,0.03
2013-6-20,85,76,65,72,67,60,92,75,61,29.82,29.64,12,1,19,0.05
2013-6-21,76,67,62,71,62,59,95,85,67,29.97,29.66,27,5,39,1.05
2013-6-22,81,71,62,70,65,60,96,83,62,29.87,29.62,7,0,11,0.00
2013-6-23,78,69,61,68,62,59,96,82,58,29.79,29.54,7,0,14,1.41
2013-6-24,82,69,58,70,64,56,96,83,61,29.81,29.66,2,0,14,0.00
2013-6-25,87,76,65,74,69,63,97,81,60,29.68,29.52,7,0,11,0.00
2013-6-26,87,75,66,70,65,58,92,74,41,29.76,29.55,16,1,24,0.02
2013-6-27,84,74,64,65,60,55,94,66,38,29.86,29.76,11,1,16,0.00
2013-6-28,80,71,61,60,58,55,87,63,47,29.90,29.84,14,2,21,0.00
2013-6-29,75,69,61,61,59,55,89,72,51,29.96,29.85,13,2,19,0.00
2013-6-30,75,68,58,59,55,50,87,65,43,30.12,29.96,10,1,14,0.00
2013-7-1,81,71,60,62,57,52,93,64,38,30.18,30.09,7,0,10,0.00
2013-7-2,82,73,60,63,57,48,91,61,32,30.10,29.98,11,0,13,0.00
2013-7-3,87,74,59,64,58,54,92,62,36,29.98,29.80,2,0,7,0.00
2013-7-4,89,76,62,67,62,56,87,64,39,29.81,29.64,11,0,15,0.00
2013-7-5,89,77,66,70,65,59,86,67,45,29.68,29.64,4,0,7,0.00
2013-7-6,87,76,70,72,68,65,88,77,58,29.69,29.63,4,0,10,0.01
2013-7-7,84,75,69,75,68,62,96,80,63,29.88,29.68,11,2,14,0.00
2013-7-8,89,74,63,67,63,59,88,70,42,29.91,29.80,6,0,7,0.00
2013-7-9,81,72,64,71,66,62,97,83,63,29.96,29.64,9,0,22,1.90
2013-7-10,81,68,56,62,58,53,93,72,46,30.06,29.94,7,0,7,0.00
2013-7-11,86,72,60,70,63,56,89,73,57,29.99,29.75,8,0,16,0.00
2013-7-12,91,79,70,77,69,63,81,72,59,29.77,29.61,10,1,17,0.00
2013-7-13,89,78,73,78,74,70,95,86,67,29.85,29.71,11,1,16,0.00
2013-7-14,76,72,69,75,70,67,97,94,88,30.07,29.83,5,0,9,1.94
2013-7-15,85,74,68,73,68,66,95,81,58,30.09,29.98,7,0,11,0.00
2013-7-16,87,77,68,72,69,66,94,77,57,30.08,30.00,7,0,13,0.00
2013-7-17,89,79,68,74,70,66,93,75,54,30.11,29.95,7,0,14,0.00
2013-7-18,90,81,73,75,71,68,88,74,57,29.95,29.64,18,1,20,0.00
2013-7-19,82,74,66,72,64,60,89,72,54,29.87,29.70,8,0,12,0.00
2013-7-20,80,69,61,67,62,58,93,79,55,29.89,29.82,11,1,14,0.00
2013-7-21,86,73,61,69,64,59,94,77,50,29.84,29.60,7,0,8,0.00
2013-7-22,76,71,62,68,63,57,92,77,61,29.86,29.58,10,1,13,0.00
2013-7-23,72,63,55,57,55,52,92,76,57,29.99,29.85,7,1,9,0.00
2013-7-24,82,69,56,66,60,53,92,73,52,30.03,29.88,2,0,6,0.00
2013-7-25,79,69,61,66,61,52,96,78,56,29.95,29.86,8,0,12,0.00
2013-7-26,67,60,53,54,51,47,90,73,53,30.12,29.95,13,2,18,0.00
2013-7-27,66,58,50,50,47,44,90,68,50,30.15,30.00,14,2,17,0.00
2013-7-28,73,59,47,54,49,44,92,71,47,30.05,29.97,3,0,8,0.00
2013-7-29,68,58,49,60,53,46,91,82,65,30.03,29.98,7,0,10,0.07
2013-7-30,77,66,61,66,62,58,95,85,66,30.05,29.95,5,0,12,0.00
2013-7-31,77,66,57,64,59,54,96,80,52,30.10,29.99,6,0,10,0.06
2013-8-1,76,64,54,64,55,52,95,76,48,30.02,29.85,7,0,9,0.00
2013-8-2,73,66,57,61,56,52,90,72,53,30.02,29.85,7,0,11,0.00
2013-8-3,75,64,54,57,53,49,89,70,48,30.17,30.03,10,0,13,0.00
2013-8-4,77,64,55,62,56,49,93,77,55,30.20,29.88,5,0,10,0.10
2013-8-5,77,68,63,67,63,59,95,84,62,29.90,29.76,5,0,9,0.01
2013-8-6,83,70,60,69,63,58,96,81,55,29.81,29.64,8,0,15,0.00
2013-8-7,76,65,58,61,56,51,94,76,50,29.96,29.81,7,0,12,0.00
2013-8-8,74,64,58,63,58,55,97,82,62,29.99,29.91,9,0,13,1.18
2013-8-9,72,63,55,57,54,52,95,75,54,30.12,29.99,7,0,15,0.00
2013-8-10,76,64,53,66,58,50,94,82,58,30.15,30.00,4,0,4,0.01
2013-8-11,77,66,57,65,60,56,97,82,54,30.02,29.96,8,0,11,0.00
2013-8-12,76,67,60,59,56,50,90,69,43,30.06,30.00,8,0,10,0.00
2013-8-13,74,63,54,57,51,46,87,67,39,30.17,30.06,9,0,10,0.00
2013-8-14,76,63,50,60,55,48,92,77,53,30.15,30.02,4,0,5,0.00
2013-8-15,78,63,52,63,56,51,97,81,45,30.08,30.01,3,0,8,0.00
2013-8-16,74,62,52,63,58,50,98,86,66,30.11,30.06,4,0,8,0.01
2013-8-17,81,68,58,70,63,57,96,85,66,30.07,29.94,8,0,12,0.00
2013-8-18,82,70,62,71,64,58,90,83,67,29.97,29.83,13,0,13,0.00
2013-8-19,87,74,64,74,68,62,94,83,63,29.89,29.74,3,0,7,0.00
2013-8-20,92,77,67,79,71,65,97,85,55,29.76,29.68,2,0,8,0.00
2013-8-21,84,75,67,72,66,57,97,76,49,29.96,29.69,14,3,16,0.00
2013-8-22,78,69,60,59,56,53,84,64,46,30.09,29.94,13,3,15,0.00
2013-8-23,86,73,58,74,65,53,87,77,61,30.05,29.81,7,0,16,0.00
2013-8-24,91,79,71,77,72,68,92,79,61,29.82,29.68,11,1,15,0.00
2013-8-25,93,82,74,78,74,70,89,76,57,29.82,29.75,8,0,13,0.00
2013-8-26,91,81,73,78,74,70,93,81,59,29.82,29.67,4,0,10,0.00
2013-8-27,90,80,70,77,72,67,97,79,51,29.83,29.66,13,1,15,0.00
2013-8-28,90,78,70,79,73,67,96,86,65,29.94,29.81,8,0,9,0.10
2013-8-29,94,80,70,78,73,68,96,82,55,29.84,29.72,8,0,11,0.00
2013-8-30,88,75,66,70,65,58,96,75,37,29.87,29.76,10,1,14,0.00
2013-8-31,89,73,65,73,66,59,96,81,56,29.82,29.64,11,0,20,0.01
2013-9-1,70,63,55,59,56,52,93,80,62,30.00,29.78,9,1,12,0.00
2013-9-2,74,60,48,56,52,46,97,76,45,30.09,29.98,4,0,7,0.01
2013-9-3,82,66,50,69,59,48,95,81,59,30.01,29.90,6,0,9,0.00
2013-9-4,86,72,61,72,66,60,97,84,60,30.05,29.94,11,1,16,0.00
2013-9-5,87,74,63,68,65,62,97,78,50,30.06,29.93,5,0,12,0.00
2013-9-6,88,76,66,74,68,64,93,80,57,29.92,29.75,5,0,8,0.00
2013-9-7,88,77,68,72,69,66,94,78,54,29.90,29.79,14,2,17,0.00
2013-9-8,76,70,65,69,67,64,96,90,78,29.92,29.72,7,0,12,0.03
2013-9-9,82,73,67,72,68,64,96,86,65,29.74,29.57,10,0,12,0.00
2013-9-10,78,69,62,65,62,58,94,80,52,29.94,29.74,6,0,9,0.01
2013-9-11,83,68,56,62,55,51,95,68,36,30.11,29.94,8,0,12,0.00
2013-9-12,72,61,51,55,51,47,94,71,44,30.23,30.11,12,1,12,0.00
2013-9-13,75,60,46,54,50,45,95,73,44,30.21,29.96,4,0,8,0.00
2013-9-14,72,60,54,60,56,50,95,85,66,29.96,29.71,10,1,13,0.41
2013-9-15,60,56,48,56,53,46,96,89,76,30.29,29.82,15,5,23,0.01
2013-9-16,68,54,42,55,48,40,100,82,55,30.34,30.11,6,0,9,0.00
2013-9-17,66,59,53,60,56,50,96,89,79,30.11,29.76,7,1,14,0.00
2013-9-18,87,72,61,73,67,60,98,85,59,29.75,29.47,5,0,13,0.79
2013-9-19,72,63,54,64,56,48,96,80,47,29.88,29.53,8,1,14,0.13
2013-9-20,61,52,44,49,45,41,94,79,52,29.99,29.87,8,1,17,0.03
2013-9-21,70,53,38,49,44,36,95,75,40,30.02,29.81,2,0,8,0.00
2013-9-22,84,65,51,62,53,46,89,67,43,29.81,29.58,8,1,19,0.00
2013-9-23,78,66,58,56,53,50,78,63,44,29.75,29.59,13,1,17,0.00
2013-9-24,72,62,55,59,55,51,91,78,57,29.88,29.75,7,0,11,0.00
2013-9-25,75,62,50,60,55,49,97,79,55,29.86,29.64,10,0,14,0.00
2013-9-26,80,69,60,64,60,54,89,74,53,29.67,29.58,9,1,16,0.00
2013-9-27,77,65,52,66,59,50,95,82,64,29.72,29.58,8,0,15,0.57
2013-9-28,62,52,46,51,47,41,97,84,49,29.89,29.60,13,1,15,1.06
2013-9-29,75,58,43,53,47,40,93,69,39,29.90,29.58,12,0,12,0.00
2013-9-30,78,64,51,57,51,47,90,66,41,29.58,29.43,5,0,9,0.00
2013-10-1,70,58,46,53,43,35,87,60,29,29.97,29.46,15,1,16,0.00
2013-10-2,71,54,44,56,45,38,94,73,39,29.97,29.78,14,2,17,0.00
2013-10-3,52,50,48,51,49,47,97,95,94,30.01,29.82,17,6,24,0.66
2013-10-4,52,50,47,51,49,46,97,96,95,29.99,29.71,26,11,35,0.22
2013-10-5,51,42,38,50,40,36,97,92,86,29.85,29.64,23,2,34,0.10
2013-10-6,56,47,42,44,41,36,96,83,50,29.96,29.82,14,2,17,0.25
2013-10-7,68,52,39,50,44,38,96,78,47,30.00,29.83,1,0,6,0.00
2013-10-8,72,60,51,52,48,45,82,67,45,29.83,29.61,8,0,15,0.00
2013-10-9,70,57,46,54,50,44,94,78,53,29.94,29.76,7,0,10,0.00
2013-10-10,74,62,52,59,54,49,91,76,56,29.88,29.63,5,0,10,0.00
2013-10-11,68,60,48,57,52,42,88,76,51,29.63,29.28,16,2,25,0.00
2013-10-12,56,47,37,42,37,31,90,71,43,30.25,29.59,16,1,20,0.01
2013-10-13,55,43,32,43,36,29,96,78,51,30.44,30.25,5,0,10,0.00
2013-10-14,50,44,41,46,40,36,96,87,61,30.33,29.79,17,4,23,0.06
2013-10-15,45,42,39,44,41,36,96,94,90,30.06,29.70,22,6,28,0.01
2013-10-16,53,40,30,42,35,29,97,83,55,30.07,29.89,8,0,12,0.01
2013-10-17,44,39,32,42,36,29,94,90,85,30.05,29.84,12,1,14,0.16
2013-10-18,46,36,27,40,32,26,95,88,74,30.08,29.88,6,0,16,0.01
2013-10-19,43,38,33,36,32,26,96,80,52,29.88,29.76,9,1,17,0.01
2013-10-20,44,38,32,42,35,26,95,90,76,30.03,29.61,12,1,18,0.07
2013-10-21,40,34,30,29,27,24,88,76,59,30.05,29.99,7,1,12,0.00
2013-10-22,37,33,29,29,28,26,91,82,70,30.14,30.00,6,0,9,0.01
2013-10-23,37,33,27,31,28,25,94,82,63,30.25,30.09,8,1,12,0.01
2013-10-24,43,34,25,33,29,23,92,82,62,30.38,30.25,13,1,14,0.00
2013-10-25,61,40,24,47,34,22,94,81,59,30.38,29.91,12,2,20,0.00
2013-10-26,44,36,28,34,28,25,88,74,54,30.24,30.02,9,1,16,0.00
2013-10-27,50,38,28,37,31,26,92,77,57,30.23,29.86,19,5,24,0.00
2013-10-28,36,31,26,28,25,23,89,80,65,30.50,30.23,19,7,22,0.00
2013-10-29,32,30,28,31,28,24,96,93,72,30.47,30.12,11,4,16,0.00
2013-10-30,35,33,31,34,32,30,97,97,96,30.13,29.77,5,0,7,0.14
2013-10-31,41,36,32,40,34,31,98,96,91,29.77,29.49,7,0,11,0.09
2013-11-1,46,38,33,40,36,31,95,90,77,30.02,29.57,13,2,19,0.00
2013-11-2,50,36,28,39,32,26,96,85,58,30.13,30.00,4,0,8,0.00
2013-11-3,53,45,37,39,35,31,81,69,54,30.00,29.63,14,1,18,0.00
2013-11-4,44,38,29,36,31,24,91,77,58,30.17,29.66,11,1,16,0.00
2013-11-5,40,34,28,28,25,21,83,68,47,30.29,30.17,4,0,5,0.00
2013-11-6,41,32,23,31,25,18,88,78,60,30.24,30.15,8,1,13,0.00
2013-11-7,41,34,30,29,27,25,81,76,61,30.26,30.19,0,0,3,0.00
2013-11-8,49,39,28,41,34,24,95,81,65,30.19,29.59,12,1,19,0.01
2013-11-9,42,36,23,40,30,19,94,81,58,30.37,29.74,16,3,27,0.00
2013-11-10,42,32,22,32,26,15,91,80,64,30.39,30.17,26,2,26,0.00
2013-11-11,22,15,11,15,9,5,81,76,68,30.90,30.31,19,3,26,0.00
2013-11-12,33,21,9,20,11,4,82,68,35,30.91,30.40,6,0,13,0.00
2013-11-13,55,38,25,38,30,20,89,75,50,30.40,29.94,9,0,11,0.00
2013-11-14,48,41,35,38,34,31,89,78,67,29.95,29.83,12,1,16,0.00
2013-11-15,54,40,26,41,33,22,90,78,56,29.84,29.47,7,0,15,0.00
2013-11-16,44,40,32,42,37,30,96,91,80,29.47,29.23,6,0,12,0.00
2013-11-17,39,34,28,38,32,26,100,93,85,30.02,29.37,10,2,16,0.00
2013-11-18,39,31,23,29,25,20,92,80,65,30.25,30.02,10,0,14,0.00
2013-11-19,53,41,30,36,31,26,92,69,48,30.17,29.66,9,1,13,0.00
2013-11-20,46,37,23,34,30,20,92,76,62,30.15,29.67,11,2,16,0.00
2013-11-21,23,16,6,20,11,1,92,80,71,30.75,30.16,16,2,17,0.00
2013-11-22,27,14,5,16,8,1,92,75,56,30.88,30.65,9,1,13,0.00
2013-11-23,16,7,-2,5,1,-7,95,75,52,31.03,30.72,3,0,10,0.00
2013-11-24,39,26,11,29,18,4,81,71,52,30.72,30.00,12,2,22,0.00
2013-11-25,35,30,24,29,24,20,90,77,65,30.25,29.99,13,3,20,0.00
2013-11-26,26,17,9,20,9,5,84,72,53,30.53,30.26,11,2,16,0.00
2013-11-27,30,18,8,17,11,4,92,75,56,30.53,30.03,10,1,14,0.00
2013-11-28,23,19,11,17,13,6,86,78,70,30.54,30.20,9,1,14,0.00
2013-11-29,36,23,11,25,17,6,92,78,65,30.53,30.10,7,1,17,0.00
2013-11-30,36,29,21,28,24,17,95,81,70,30.25,30.09,4,0,8,0.00
2013-12-1,40,33,27,27,25,22,84,74,59,30.25,29.82,3,0,8,0.00
2013-12-2,41,34,28,34,30,25,93,84,72,29.81,29.52,6,0,10,0.00
2013-12-3,28,22,18,26,21,16,95,94,92,29.91,29.66,9,1,15,0.03
2013-12-4,24,15,3,22,12,0,93,89,85,29.99,29.73,20,2,20,0.32
2013-12-5,3,-3,-11,0,-6,-15,95,83,80,30.55,29.99,16,1,21,0.00
2013-12-6,-5,-10,-15,-9,-14,-19,92,81,78,30.86,30.55,7,0,11,0.00
2013-12-7,-4,-10,-18,-10,-16,-23,92,77,73,30.87,30.64,7,0,8,0.00
2013-12-8,12,4,-5,6,-1,-10,92,82,78,30.64,30.19,3,0,9,0.01
2013-12-9,16,-3,-13,12,-7,-17,89,81,76,30.30,29.91,18,1,21,0.00
2013-12-10,15,5,-5,12,1,-10,89,82,74,30.53,29.95,14,2,27,0.01
2013-12-11,14,-3,-15,9,-8,-20,82,79,73,30.70,30.40,8,0,8,0.00
2013-12-12,28,17,9,21,12,5,95,80,72,30.42,30.18,5,0,10,0.00
2013-12-13,12,8,3,8,4,0,89,86,84,30.41,30.16,19,8,22,0.00
2013-12-14,8,5,1,4,2,-2,87,84,81,30.41,30.27,8,0,9,0.02
2013-12-15,5,2,-2,3,-2,-6,93,83,80,30.29,30.13,6,1,12,0.01
2013-12-16,31,19,5,27,16,2,91,87,86,30.15,30.04,8,1,15,0.00
2013-12-17,31,23,14,27,18,10,87,82,76,30.24,30.00,14,2,22,0.00
2013-12-18,39,28,18,31,22,14,90,81,69,30.00,29.73,12,1,18,0.00
2013-12-19,17,4,0,14,0,-4,87,84,82,30.25,29.97,18,8,26,0.00
2013-12-20,13,6,0,10,3,-4,92,85,80,30.24,29.97,7,0,13,0.03
2013-12-21,7,1,-6,4,-2,-10,89,85,79,30.22,29.95,11,2,13,0.00
2013-12-22,0,-4,-12,-3,-8,-17,92,83,80,30.59,30.22,6,0,11,0.00
2013-12-23,-5,-13,-18,-12,-18,-23,92,76,72,30.78,30.59,4,0,9,0.00
2013-12-24,20,7,-15,18,3,-21,91,84,76,30.61,30.20,6,0,10,0.09
2013-12-25,30,24,19,28,21,16,95,90,83,30.30,30.14,9,1,14,0.07
2013-12-26,32,27,22,28,23,18,92,87,82,30.22,30.08,8,0,11,0.00
2013-12-27,38,29,17,33,25,14,93,87,81,30.19,29.99,9,1,14,0.00
2013-12-28,35,19,-8,30,15,-12,91,86,79,30.41,29.76,16,2,23,0.00
2013-12-29,-1,-8,-14,-6,-14,-19,89,77,73,30.60,30.35,8,0,16,0.00
2013-12-30,9,2,-6,5,-2,-11,84,82,79,30.41,30.21,3,0,8,0.05
2013-12-31,4,-5,-14,-1,-10,-19,92,81,78,30.53,30.34,13,4,15,0.01
2014-1-1,1,-5,-12,-4,-10,-17,81,79,76,30.63,30.50,6,0,8,0.00
2014-1-2,-1,-11,-22,-5,-16,-27,83,79,75,30.69,30.35,3,0,8,0.00